Weather History for KBFF - January, 2001

Change the Weather History Date:

Saturday, January 20, 2001

  Actual Average Record
Temperature  
Mean Temperature 28 °F 28 °F  
Max Temperature 37 °F 41 °F 67 °F (2005)
Min Temperature 19 °F 14 °F -20 °F (1935)
Degree Days  
Heating Degree Days 37 37  
Month to date heating degree days 763  
Since 1 July heating degree days 3535  
Cooling Degree Days 0 0  
Month to date cooling degree days 0  
Year to date cooling degree days 0  
Moisture  
Dew Point 25 °F    
Average Humidity 80    
Maximum Humidity 93    
Minimum Humidity 60    
Precipitation  
Precipitation 0.01 in 0.01 in 0.30 in (1973)
Month to date precipitation 0.26  
Year to date precipitation 0.26  
Sea Level Pressure  
Sea Level Pressure 30.18 in    
Wind  
Wind Speed 8 mph (NW)    
Max Wind Speed 21 mph    
Max Gust Speed 25 mph    
Visibility 8 miles    
Events Snow    
T = Trace of Precipitation, MM = Missing Value Source: NWS Daily Summary

Daily Weather History Graph

Daily Weather History Graph

Search for Another Location

Airport or City:

Trip Planner

Search our weather history database for the weather conditions in past years. The results will help you decide how hot, cold, wet, or windy it might be!

Date:

Astronomy

Jan. 20, 2001 Rise Set
Actual Time 7:16 AM MST 4:54 PM MST
Civil Twilight 6:46 AM MST 5:25 PM MST
Nautical Twilight 6:12 AM MST 5:59 PM MST
Astronomical Twilight 5:39 AM MST 6:32 PM MST
Moon 4:13 AM MST (1/20) 1:53 PM MST (1/20)
Length of Visible Light 10h 38m
Length of Day
9h 38m
Waning Crescent, 12% of the Moon is Illuminated
Jan 20
Waning Crescent
Jan 24
New
Feb 1
First Quarter
Feb 8
Full
Feb 14
Last Quarter

Hourly Weather History & Observations

Time (MST) Temp. Windchill Dew Point Humidity Pressure Visibility Wind Dir Wind Speed Gust Speed Precip Events Conditions
12:54 AM 19.0 °F - 14.0 °F 81% 30.07 in 10.0 mi Calm Calm - N/A   Clear
1:54 AM 19.0 °F - 14.0 °F 81% 30.06 in 10.0 mi Calm Calm - N/A   Partly Cloudy
2:54 AM 19.9 °F - 14.0 °F 78% 30.05 in 10.0 mi Calm Calm - N/A   Overcast
3:54 AM 19.9 °F 14.9 °F 14.0 °F 78% 30.04 in 10.0 mi NNW 3.5 mph - N/A   Scattered Clouds
4:54 AM 19.9 °F - 15.1 °F 81% 30.06 in 10.0 mi Calm Calm - N/A   Mostly Cloudy
5:54 AM 21.0 °F - 16.0 °F 81% 30.09 in 10.0 mi Calm Calm - N/A   Clear
6:54 AM 21.9 °F 13.4 °F 17.1 °F 82% 30.13 in 10.0 mi NNW 6.9 mph - N/A   Overcast
7:54 AM 24.1 °F 18.2 °F 18.0 °F 77% 30.14 in 10.0 mi NNW 4.6 mph - N/A   Overcast
8:54 AM 30.9 °F 22.2 °F 19.9 °F 64% 30.14 in 10.0 mi West 10.4 mph - N/A   Overcast
9:54 AM 37.0 °F 28.1 °F 26.1 °F 65% 30.15 in 10.0 mi WNW 15.0 mph 23.0 mph N/A   Mostly Cloudy
10:41 AM 37.4 °F 27.8 °F 24.8 °F 60% 30.07 in 10.0 mi NW 17.3 mph 23.0 mph N/A   Overcast
10:54 AM 37.0 °F 26.7 °F 26.1 °F 65% 30.19 in 10.0 mi NW 19.6 mph - N/A   Overcast
11:24 AM 33.8 °F 23.2 °F 30.2 °F 87% 30.08 in 2.0 mi NW 17.3 mph - 0.00 in Snow Light Snow
11:33 AM 33.8 °F 23.2 °F 32.0 °F 93% 30.08 in 1.8 mi NW 17.3 mph - 0.00 in Snow Light Snow
11:43 AM 33.8 °F 23.9 °F 32.0 °F 93% 30.08 in 2.0 mi WNW 15.0 mph - 0.00 in Snow Light Snow
11:54 AM 34.0 °F 24.2 °F 32.0 °F 92% 30.19 in 1.8 mi WNW 15.0 mph - 0.00 in Snow Light Snow
12:09 PM 33.8 °F 24.3 °F 32.0 °F 93% 30.08 in 1.8 mi WNW 13.8 mph - 0.00 in Snow Light Snow
12:15 PM 33.8 °F 24.3 °F 32.0 °F 93% 30.08 in 2.0 mi WNW 13.8 mph - 0.00 in Snow Light Snow
12:28 PM 33.8 °F 24.3 °F 32.0 °F 93% 30.08 in 3.0 mi WNW 13.8 mph - 0.00 in Snow Light Snow
12:54 PM 35.1 °F 25.5 °F 33.1 °F 92% 30.19 in 6.0 mi WNW 15.0 mph - 0.00 in Snow Light Snow
1:54 PM 37.0 °F 27.0 °F 32.0 °F 82% 30.19 in 10.0 mi NW 18.4 mph 24.2 mph 0.01 in   Overcast
2:54 PM 37.9 °F 27.9 °F 30.0 °F 73% 30.22 in 10.0 mi NNW 19.6 mph 25.3 mph 0.00 in   Overcast
3:37 PM 37.4 °F 27.2 °F 28.4 °F 70% 30.15 in 10.0 mi NW 19.6 mph - N/A   Overcast
3:54 PM 37.0 °F 28.1 °F 28.9 °F 73% 30.25 in 10.0 mi NW 15.0 mph - N/A   Scattered Clouds
4:54 PM 35.1 °F 26.4 °F 28.0 °F 76% 30.28 in 10.0 mi NW 12.7 mph - N/A   Overcast
5:54 PM 35.1 °F 25.5 °F 27.0 °F 72% 30.31 in 10.0 mi WNW 15.0 mph - N/A   Overcast
6:54 PM 35.1 °F 23.8 °F 27.0 °F 72% 30.32 in 10.0 mi NW 20.7 mph - N/A   Overcast
7:54 PM 34.0 °F 23.4 °F 26.1 °F 73% 30.34 in 10.0 mi WNW 17.3 mph - N/A   Overcast
8:54 PM 30.9 °F 21.2 °F 25.0 °F 79% 30.36 in 10.0 mi NW 12.7 mph - N/A   Overcast
9:54 PM 30.9 °F 22.2 °F 24.1 °F 76% 30.36 in 10.0 mi NW 10.4 mph - N/A   Overcast
10:54 PM 27.0 °F 18.0 °F 23.0 °F 85% 30.39 in 10.0 mi WNW 9.2 mph - N/A   Overcast
11:54 PM 25.0 °F 17.1 °F 21.0 °F 85% 30.40 in 10.0 mi NW 6.9 mph - N/A   Clear